User: anonymous   Login
Location: Unspecified
(0.0000°N, 0.0000°E)
Time: 05:21:18
(UTC+00:00)
Language:

Gonets-D1 - Orbit

View from above orbital plane
View from above orbital plane
View from above satellite
View from above satellite

Ground track
Ground track

The orbit data is extracted from the following two-line orbital elements,

1 24726U 97006B   18146.55633261 +.00000039 +00000-0 +16148-3 0  9999
2 24726 082.5984 333.1226 0004366 279.6438 080.4159 12.61338986979455
Epoch (UTC): 26 May 2018 13:21:07
Eccentricity: 0.0004366
inclination: 82.5984°
perigee height: 1414 km
apogee height: 1421 km
right ascension of ascending node: 333.1226°
argument of perigee: 279.6438°
revolutions per day: 12.61338986
mean anomaly at epoch: 80.4159°
orbit number at epoch: 97945

The dashed part of the orbit path shows where the satellite is in the earth's shadow,  

DLR